This demonstration page uses our WeatherBlox Daily Observations layout. Learn more.

Left ArrowRight Arrow

39.08367, -84.50855

Hourly Observations for August 10, 2020

Temp ( °F °C ) Dew Point ( °F °C ) Humidity (%) Winds ( mph kmh ) Pressure ( in mb ) Visibility ( mi km ) Precip ( " mm )
12:53 am 00:53 Clear 69 20.6 67 19.4 93 93 N N/A 30.06 1018 9 14 N/A
1:53 am 01:53 Clear 71 21.7 70 21.1 96 96 W 3 6 30.06 1018 9 14 N/A
2:53 am 02:53 Clear with Mist and Fog 69 20.6 68 20 96 96 N N/A 30.06 1018 4 6 N/A
3:53 am 03:53 Clear 69 20.6 67 19.4 93 93 NE 3 6 30.06 1018 7 11 N/A
4:06 am 04:06 Clear with Mist and Fog 68 20 66 18.9 93 93 N N/A 30.07 1018 2 3 N/A
4:16 am 04:16 Clear with Mist and Fog 69 20.6 67 19.4 93 93 N N/A 30.07 1018 5 8 N/A
4:51 am 04:51 Clear with Mist and Fog 64 18 64 18 100 100 SSW 3 6 30.07 1018 2 2 N/A
4:53 am 04:53 Mostly Clear with Mist and Fog 64 17.8 64 17.8 100 100 N N/A 30.06 1018 2 2 N/A
5:01 am 05:01 Mostly Clear with Mist and Fog 67 19.4 66 18.9 97 97 N N/A 30.06 1018 4 6 N/A
5:53 am 05:53 Clear with Mist and Fog 67 19.4 65 18.3 93 93 N N/A 30.05 1018 5 8 N/A
6:11 am 06:11 Mostly Cloudy with Mist and Fog 66 18.9 65 18.3 96 96 N N/A 30.05 1018 1 2 N/A
6:16 am 06:16 Mostly Cloudy with Fog 66 18.9 65 18.3 96 96 N N/A 30.05 1018 0 0 N/A
6:34 am 06:34 Mostly Cloudy with Fog 67 19.4 66 18.9 97 97 N N/A 30.05 1018 0 0 N/A
6:38 am 06:38 Mostly Cloudy with Fog 66 18.9 65 18.3 96 96 N N/A 30.05 1018 1 1 N/A
6:47 am 06:47 Mostly Cloudy with Mist and Fog 66 19 64 18 94 94 N N/A 30.05 1018 2 3 N/A
6:53 am 06:53 Partly Cloudy with Mist and Fog 66 18.9 65 18.3 96 96 N N/A 30.04 1017 5 8 N/A
7:05 am 07:05 Mostly Cloudy with Mist and Fog 66 18.9 65 18.3 96 96 N N/A 30.05 1018 1 2 N/A
7:12 am 07:12 Partly Cloudy with Mist and Fog 66 18.9 66 18.9 100 100 N N/A 30.06 1018 5 8 N/A
7:53 am 07:53 Sunny 70 21.1 68 20 93 93 N N/A 30.06 1018 10 16 N/A
8:53 am 08:53 Sunny 74 23.3 69 20.6 85 85 S 7 11 30.07 1018 10 16 N/A
9:53 am 09:53 Sunny 79 26.1 69 20.6 72 72 WSW 8 13 30.08 1019 10 16 N/A
10:19 am 10:19 Mostly Cloudy 78 25.6 69 20.6 74 74 SSW 7 11 30.06 1018 10 16 N/A
10:53 am 10:53 Mostly Cloudy 78 25.6 69 20.6 74 74 WSW 7 11 30.06 1018 10 16 N/A
11:53 am 11:53 Mostly Cloudy 76 24.4 69 20.6 79 79 WSW 8 13 30.06 1018 10 16 N/A
12:53 pm 12:53 Mostly Cloudy with Light Rain 76 24.4 71 21.7 85 85 SSW 6 9 30.04 1017 7 11 0.01 0.25
1:53 pm 13:53 Sunny 78 25.6 70 21.1 76 76 S 8 13 30.02 1017 10 16 0.00 0.00
2:53 pm 14:53 Partly Cloudy 81 27.2 70 21.1 69 69 SSE 6 9 30.01 1016 10 16 N/A
3:53 pm 15:53 Sunny 83 28.3 70 21.1 65 65 S 7 11 29.97 1015 10 16 N/A
4:53 pm 16:53 Partly Cloudy 84 28.9 70 21.1 63 63 SW 10 17 29.96 1014 10 16 N/A
5:53 pm 17:53 Mostly Cloudy 83 28.3 70 21.1 65 65 S 9 15 29.93 1014 10 16 N/A
6:53 pm 18:53 Partly Cloudy 83 28.3 71 21.7 67 67 SSW 8 13 29.93 1013 10 16 N/A
7:53 pm 19:53 Mostly Sunny 80 26.7 70 21.1 71 71 S 6 9 29.92 1013 10 16 N/A
8:53 pm 20:53 Mostly Cloudy 79 26.1 70 21.1 74 74 N N/A 29.93 1014 10 16 N/A
9:53 pm 21:53 Mostly Cloudy 77 25 71 21.7 82 82 N N/A 29.94 1014 10 16 N/A
10:30 pm 22:30 Partly Cloudy with Nearby Thunderstorms 76 24.4 71 21.7 85 85 SSW 7 11 29.94 1014 10 16 N/A
10:35 pm 22:35 Partly Cloudy with Thunderstorms 77 25 71 21.7 82 82 SSW 5 7 29.95 1014 10 16 N/A
10:50 pm 22:50 Partly Cloudy with Strong Thunderstorms 72 22 68 20 88 88 NNE 17 28 30.03 1017 2 3 0.15 3.81
11:00 pm 23:00 Mostly Cloudy with Strong Thunderstorms 70 21.1 68 20 93 93 NNE 14 22 30.03 1017 1 2 0.14 3.56
11:11 pm 23:11 Cloudy with Nearby Thunderstorms 70 21.1 67 19.4 90 90 NNE 9 15 30.03 1017 3 4 0.23 5.84
11:15 pm 23:15 Cloudy with Nearby Thunderstorms 70 21.1 67 19.4 90 90 NNE 7 11 30.03 1017 4 6 0.23 5.84
11:33 pm 23:33 Cloudy with Light Rain 70 21.1 68 20 93 93 N N/A 30.02 1016 10 16 0.24 6.10
11:53 pm 23:53 Cloudy with Light Rain 70 21.1 68 20 93 93 N N/A 30.03 1017 10 16 0.25 6.35

Powered by AerisWeather